Date,TemperatureHighF,TemperatureAvgF,TemperatureLowF,DewpointHighF,DewpointAvgF,DewpointLowF,HumidityHigh,HumidityAvg,HumidityLow,PressureMaxIn,PressureMinIn,WindSpeedMaxMPH,WindSpeedAvgMPH,GustSpeedMaxMPH,PrecipitationSumIn
2013-1-3,39,28,16,15,11,6,65,49,35,30.54,30.45,3,1,6,0.00
2013-1-4,37,22,10,9,5,2,73,48,30,30.58,30.41,4,2,7,0.00
2013-1-5,45,27,10,9,5,1,68,42,19,30.61,30.49,4,1,7,0.00
2013-1-6,42,28,15,10,7,4,61,42,26,30.60,30.29,4,1,7,0.00
2013-1-7,50,36,28,20,14,8,63,42,27,30.30,30.03,3,1,8,0.00
2013-1-8,50,34,20,19,16,11,74,49,22,30.35,30.04,8,4,13,0.00
2013-1-9,56,40,24,20,16,12,65,40,22,30.54,30.21,4,1,6,0.00
2013-1-10,45,33,24,16,14,11,61,45,31,30.20,29.82,5,1,7,0.00
2013-1-11,41,31,15,25,6,-7,60,37,20,30.03,29.68,10,5,18,0.00
2013-1-12,33,19,7,4,-3,-10,59,39,21,30.27,30.02,7,2,10,0.00
2013-1-13,30,17,1,5,-1,-7,71,48,31,30.38,30.23,5,1,9,0.00
2013-1-14,27,18,13,22,9,-3,84,68,48,30.35,30.18,6,1,10,0.00
2013-1-15,25,16,7,3,1,-4,67,51,36,30.68,30.34,10,4,12,0.00
2013-1-16,42,25,10,16,8,0,69,50,33,30.76,30.57,3,1,5,0.00
2013-1-17,50,31,17,19,13,9,70,50,28,30.74,30.55,3,1,4,0.00
2013-1-18,52,39,22,21,18,13,69,45,29,30.54,30.34,6,1,8,0.00
2013-1-19,57,38,25,22,18,15,66,46,22,30.46,30.33,5,1,7,0.00
2013-1-20,56,35,18,19,13,7,69,43,16,30.43,30.27,5,1,9,0.00
2013-1-21,56,38,21,18,14,9,65,40,21,30.42,30.25,6,2,9,0.00
2013-1-22,62,40,22,19,14,9,62,37,14,30.41,30.27,8,2,11,0.00
2013-1-23,58,40,23,16,12,7,56,33,18,30.46,30.31,3,1,4,0.00
2013-1-24,62,44,25,35,19,8,69,38,19,30.39,30.20,5,1,10,0.00
2013-1-25,59,47,38,40,36,30,77,65,50,30.28,30.10,3,1,5,0.00
2013-1-26,54,46,42,49,40,35,92,80,62,30.13,29.83,7,1,8,0.18
2013-1-27,60,48,36,42,38,33,93,72,39,29.96,29.84,6,2,10,0.00
2013-1-28,54,42,33,40,32,19,92,70,38,29.88,29.68,10,4,15,0.00
2013-1-29,35,30,24,22,15,3,75,53,29,30.09,29.72,16,7,23,0.00
2013-1-30,42,31,18,17,14,8,73,51,31,30.38,30.09,10,4,17,0.00
2013-1-31,53,40,20,25,21,16,84,50,27,30.47,30.33,8,2,11,0.00
2013-2-1,58,40,25,25,20,15,76,50,19,30.36,30.22,6,1,7,0.00
2013-2-2,60,43,32,26,22,18,70,46,21,30.43,30.30,4,2,7,0.00
2013-2-3,52,42,29,31,22,17,65,48,29,30.34,30.02,5,1,10,0.00
2013-2-4,60,44,34,30,25,19,76,50,22,30.13,29.98,5,2,9,0.00
2013-2-5,63,44,30,26,20,16,68,41,19,30.12,29.96,5,1,8,0.00
2013-2-6,62,44,27,30,22,16,67,45,28,30.00,29.84,5,2,9,0.00
2013-2-7,60,44,33,28,20,10,68,42,18,30.14,30.00,5,2,9,0.00
2013-2-8,56,43,31,26,22,18,60,43,29,30.12,29.75,11,3,18,0.00
2013-2-9,50,36,26,25,15,7,69,45,25,29.89,29.60,14,6,23,0.00
2013-2-10,44,32,20,21,15,11,79,51,28,30.08,29.89,6,2,13,0.00
2013-2-11,46,31,17,25,18,6,88,62,20,30.15,30.00,7,2,12,0.00
2013-2-12,42,30,22,21,13,8,78,52,26,30.32,30.07,8,4,13,0.00
2013-2-13,48,33,17,17,13,7,66,45,28,30.34,30.17,9,3,14,0.00
2013-2-14,51,38,21,21,18,13,72,45,26,30.29,30.12,11,4,15,0.00
2013-2-15,52,38,20,23,14,6,82,44,15,30.45,30.29,11,4,16,0.00
2013-2-16,60,40,22,15,8,-1,55,30,10,30.51,30.19,6,1,9,0.00
2013-2-17,60,42,20,11,6,1,45,25,11,30.20,29.74,7,2,10,0.00
2013-2-18,42,38,32,18,13,10,54,36,26,29.96,29.83,5,3,9,0.00
2013-2-20,37,35,31,30,28,25,80,76,73,29.58,29.52,5,2,9,0.00
2013-2-21,47,36,29,27,22,17,89,58,31,29.95,29.53,7,3,10,0.00
2013-2-22,32,28,25,19,18,16,73,66,56,29.99,29.95,1,0,3,0.00
2013-2-23,51,39,14,19,12,6,72,36,20,30.22,29.82,7,2,11,0.00
2013-2-24,40,33,27,24,14,4,70,47,27,29.98,29.70,12,6,17,0.00
2013-2-25,49,36,24,15,10,0,62,37,16,30.19,29.98,8,4,14,0.00
2013-2-26,47,33,20,16,6,-6,63,35,14,30.20,29.90,13,5,25,0.00
2013-2-27,48,33,19,11,5,-2,58,33,15,30.40,30.20,6,1,7,0.00
2013-2-28,54,38,21,11,4,-1,44,27,11,30.46,30.30,8,3,13,0.00
2013-3-1,60,45,28,22,16,5,44,32,21,30.45,30.26,8,3,13,0.00
2013-3-2,68,49,30,26,22,16,64,37,18,30.42,30.15,4,1,5,0.00
2013-3-3,67,51,29,25,17,3,55,29,8,30.15,29.80,9,3,15,0.00
2013-3-4,63,52,42,25,21,18,42,31,19,30.04,29.68,13,4,17,0.00
2013-3-5,61,46,29,23,18,7,63,36,12,30.29,30.04,4,2,8,0.00
2013-3-6,66,51,40,28,21,13,43,31,22,30.16,29.86,7,2,11,0.00
2013-3-7,70,54,34,24,17,10,41,24,14,30.01,29.79,6,2,9,0.00
2013-3-8,61,47,37,42,26,11,88,50,21,29.87,29.63,11,3,11,0.06
2013-3-9,48,38,29,34,25,18,87,61,31,30.02,29.74,9,3,13,0.00
2013-3-10,53,39,26,30,23,14,89,58,26,30.22,30.02,8,2,11,0.00
2013-3-11,63,45,25,22,18,11,69,39,13,30.26,30.02,7,2,11,0.00
2013-3-12,69,52,32,27,23,18,57,34,18,30.18,30.03,7,2,10,0.00
2013-3-13,72,54,34,29,24,17,62,33,16,30.30,30.12,5,2,9,0.00
2013-3-14,78,58,38,27,21,12,53,26,11,30.25,30.04,5,2,8,0.00
2013-3-15,79,60,39,22,17,11,37,20,9,30.09,29.79,6,2,10,0.00
2013-3-16,72,59,42,36,23,13,56,27,15,29.80,29.58,11,4,15,0.00
2013-3-17,69,53,37,38,22,-4,75,39,6,29.77,29.57,13,4,19,0.00
2013-3-18,68,52,34,13,10,4,31,19,10,29.92,29.77,9,3,13,0.00
2013-3-19,65,50,37,19,11,3,33,21,15,30.14,29.91,6,2,11,0.00
2013-3-20,64,49,31,28,20,14,51,32,20,30.22,29.82,7,2,13,0.00
2013-3-21,71,58,45,34,21,3,50,28,7,29.82,29.48,15,5,20,0.00
2013-3-22,66,51,33,29,14,7,45,24,11,29.73,29.51,10,4,20,0.00
2013-3-23,48,38,23,27,3,-14,55,25,10,30.13,29.62,15,6,21,0.00
2013-3-24,55,38,19,3,-3,-12,31,19,11,30.24,29.98,9,3,14,0.00
2013-3-25,57,40,21,13,8,0,56,29,17,30.28,30.09,8,2,14,0.00
2013-3-26,43,37,34,11,8,7,34,30,26,30.22,30.21,2,1,3,0.00
2013-3-27,73,60,40,19,14,9,35,17,10,30.03,29.83,8,3,18,0.00
2013-3-28,74,61,45,24,17,10,28,19,11,29.99,29.84,7,2,10,0.00
2013-3-29,76,60,44,24,21,16,34,23,12,30.04,29.87,8,2,13,0.00
2013-3-30,75,59,40,28,22,16,40,25,13,30.04,29.82,6,2,9,0.00
2013-3-31,75,61,48,34,29,25,51,31,19,29.95,29.76,5,2,8,0.00
2013-4-1,75,61,46,28,20,8,43,23,9,29.90,29.65,9,2,10,0.00
2013-4-2,69,56,42,24,18,0,38,24,7,29.86,29.64,12,3,15,0.00
2013-4-3,67,52,36,32,27,21,71,42,18,30.06,29.86,7,2,12,0.00
2013-4-4,75,57,38,31,22,12,62,30,12,30.16,29.93,4,1,11,0.00
2013-4-5,79,62,46,22,16,11,27,18,9,29.97,29.62,9,3,19,0.00
2013-4-6,78,63,48,28,24,18,38,23,12,29.81,29.60,7,2,10,0.00
2013-4-7,76,64,47,28,22,17,41,22,12,29.71,29.52,7,3,12,0.00
2013-4-8,78,63,48,31,24,16,44,24,10,29.56,29.13,16,7,21,0.00
2013-4-9,52,45,38,36,32,27,85,62,37,29.80,29.19,11,4,17,0.03
2013-4-10,40,38,37,35,34,33,87,85,81,29.83,29.80,2,0,4,0.00
2013-4-18,49,42,28,9,7,2,42,25,15,30.14,29.95,11,7,20,0.00
2013-4-19,66,48,27,10,7,3,36,21,10,30.36,29.97,4,2,7,0.00
2013-4-20,69,55,40,22,14,8,36,20,12,29.99,29.74,11,3,20,0.00
2013-4-21,76,58,40,26,20,10,44,25,8,30.04,29.83,6,2,12,0.00
2013-4-22,82,65,42,22,17,13,33,17,8,29.89,29.57,9,4,14,0.00
2013-4-23,72,58,44,30,18,-8,51,23,7,29.95,29.59,13,4,17,0.00
2013-4-24,72,49,27,22,18,6,64,35,13,30.14,29.95,4,1,8,0.00
2013-4-26,76,64,42,31,21,7,55,23,7,30.05,29.91,7,2,12,0.00
2013-4-27,80,62,44,31,17,-2,46,23,5,30.09,29.87,5,2,11,0.00
2013-4-28,82,65,42,18,11,5,27,13,6,29.93,29.67,5,2,8,0.00
2013-4-29,87,68,46,23,16,7,23,14,9,29.76,29.49,7,2,12,0.00
2013-4-30,87,70,51,25,18,14,27,15,7,29.62,29.44,9,3,14,0.00
2013-5-1,83,68,51,29,16,-3,38,14,8,29.96,29.53,10,4,16,0.00
2013-5-2,62,50,36,30,20,14,59,34,16,30.34,29.96,6,2,8,0.00
2013-5-3,67,50,30,20,16,12,52,28,13,30.36,29.94,5,2,9,0.00
2013-5-4,77,60,39,17,14,10,31,18,9,29.97,29.73,9,3,15,0.00
2013-5-5,73,62,50,34,23,12,32,23,15,29.95,29.78,9,4,15,0.00
2013-5-6,71,61,54,39,28,18,50,29,21,29.84,29.75,11,3,12,0.00
2013-5-7,74,61,45,36,31,27,52,34,19,29.90,29.67,11,2,12,0.00
2013-5-8,72,59,45,36,29,20,63,35,16,29.86,29.74,7,2,10,0.00
2013-5-9,74,61,45,34,28,23,47,30,16,29.94,29.79,7,2,10,0.00
2013-5-10,70,59,46,42,37,32,69,45,30,30.15,29.92,8,2,11,0.00
2013-5-11,72,58,45,45,38,31,84,50,23,30.20,30.11,9,2,12,0.01
2013-5-12,70,52,42,38,34,30,64,51,31,30.22,30.16,2,1,5,0.00
2013-6-15,75,75,75,41,41,41,30,30,30,29.78,29.78,9,9,10,0.00
2013-6-16,96,79,64,50,43,36,48,30,14,29.79,29.64,16,3,23,0.00
2013-6-17,95,79,60,49,42,36,56,30,13,29.82,29.60,9,2,9,0.00
2013-6-18,91,78,64,54,49,40,62,38,19,29.79,29.54,8,4,13,0.00
2013-6-19,98,81,60,46,25,9,43,17,4,29.67,29.43,9,3,16,0.00
2013-6-20,98,80,58,47,17,-6,43,13,2,29.68,29.49,7,2,15,0.00
2013-6-21,96,79,60,42,20,1,32,12,4,29.74,29.51,6,2,12,0.00
2013-6-22,95,79,57,27,19,12,20,11,5,29.70,29.50,7,3,15,0.00
2013-6-23,93,78,57,27,18,8,19,11,5,29.69,29.47,8,3,13,0.00
2013-6-24,95,79,63,27,16,9,19,10,5,29.68,29.51,8,3,13,0.00
2013-6-25,97,81,60,30,24,16,22,13,8,29.75,29.58,5,2,8,0.00
2013-6-26,102,84,63,35,30,24,25,15,9,29.79,29.61,4,1,7,0.00
2013-6-27,107,89,68,39,33,25,27,15,6,29.78,29.58,6,2,9,0.00
2013-6-28,99,85,74,54,45,33,49,26,15,29.81,29.65,11,3,19,0.00
2013-6-29,101,81,66,50,47,40,52,33,14,29.83,29.61,11,2,15,0.00
2013-6-30,97,80,66,52,48,42,50,34,17,29.84,29.55,8,2,13,0.00
2013-7-1,92,74,59,56,52,44,82,50,21,29.91,29.74,8,3,14,0.01
2013-7-2,88,73,59,55,50,44,73,47,26,29.96,29.72,7,3,11,0.00
2013-7-3,68,63,60,58,56,53,84,78,63,29.89,29.86,6,2,11,0.03
2013-7-9,100,82,65,63,59,53,88,50,22,29.87,29.71,8,1,8,0.14
2013-7-10,96,82,68,61,56,51,72,45,23,29.83,29.64,7,2,15,0.00
2013-7-11,76,74,69,59,57,55,70,56,50,29.75,29.73,5,3,8,0.00
2013-7-14,71,69,66,64,62,60,89,79,70,29.78,29.61,7,3,13,0.44
2013-7-21,92,81,67,61,56,49,73,45,26,29.73,29.58,8,3,9,0.00
2013-7-22,97,82,65,58,53,47,69,41,20,29.73,29.57,5,2,9,0.00
2013-7-23,101,81,66,57,53,47,68,41,18,29.70,29.55,10,1,11,0.01
2013-7-24,92,74,65,67,56,50,86,57,29,29.86,29.65,13,2,13,0.54
2013-7-25,85,73,63,63,60,58,87,65,44,29.92,29.77,6,2,11,0.00
2013-7-26,91,72,60,63,60,56,93,68,36,30.01,29.80,13,3,13,0.52
2013-7-27,84,72,59,61,58,55,95,64,39,30.01,29.74,6,2,12,0.00
2013-7-28,89,75,63,64,60,52,92,63,29,29.76,29.59,8,2,12,0.02
2013-7-29,92,77,62,61,54,46,86,50,22,29.82,29.69,7,2,13,0.00
2013-7-30,96,81,64,52,49,46,60,35,20,29.93,29.77,4,1,8,0.00
2013-7-31,98,82,67,54,49,43,54,33,18,29.91,29.71,6,1,10,0.00
2013-8-1,88,75,67,64,58,53,88,58,37,29.86,29.73,6,2,10,0.20
2013-8-2,93,75,62,63,60,53,92,65,27,29.84,29.68,10,2,12,0.09
2013-8-3,93,77,61,61,58,53,89,56,27,29.84,29.70,4,1,7,0.00
2013-8-4,97,78,65,66,58,52,85,54,25,29.80,29.63,9,2,13,0.45
2013-8-5,94,76,63,61,58,54,83,58,29,29.84,29.66,10,2,11,0.00
2013-8-6,90,74,65,60,55,52,75,53,28,29.76,29.64,9,3,11,0.08
2013-8-7,83,72,61,58,55,52,80,59,35,29.80,29.72,8,3,11,0.00
2013-8-8,87,74,62,57,52,43,82,51,24,29.81,29.70,8,3,13,0.00
2013-8-9,90,75,61,52,48,41,67,41,19,29.88,29.75,9,3,12,0.00
2013-8-10,85,70,60,55,52,-100,82,56,34,30.03,29.83,14,-2,18,0.15
2013-8-11,85,70,59,57,55,48,92,61,29,30.05,29.84,4,1,9,0.00
2013-8-12,85,70,64,64,58,54,83,65,39,29.94,29.78,9,2,11,0.16
2013-8-13,88,74,62,60,54,45,86,54,24,29.94,29.78,7,1,12,0.00
2013-8-14,91,75,63,59,53,43,81,50,22,29.89,29.73,10,2,11,0.00
2013-8-15,92,77,61,60,51,41,74,44,19,29.89,29.75,7,1,15,0.02
2013-8-16,99,78,59,54,48,37,73,39,13,29.88,29.72,4,1,6,0.00
2013-8-17,96,82,69,56,50,45,60,36,18,29.84,29.63,9,2,15,0.04
2013-8-18,96,81,68,54,50,46,58,36,20,29.82,29.65,5,2,7,0.00
2013-8-19,98,80,68,59,52,47,73,40,19,29.79,29.62,6,2,11,0.00
2013-8-20,92,75,60,60,57,50,88,57,27,29.80,29.64,8,1,9,0.00
2013-8-21,92,79,64,58,54,49,75,45,24,29.81,29.67,8,2,10,0.00
2013-8-22,93,79,63,54,50,41,68,38,23,29.84,29.65,6,2,8,0.00
2013-8-23,88,75,61,52,46,38,48,36,23,29.82,29.66,10,3,13,0.00
2013-8-24,86,74,63,62,56,48,84,58,33,29.87,29.73,7,2,10,0.11
2013-8-25,87,73,64,63,59,55,91,65,35,29.94,29.84,7,1,10,0.05
2013-8-26,89,75,63,60,56,51,80,55,30,29.96,29.79,5,2,10,0.00
2013-8-27,89,76,62,56,52,47,69,44,27,29.87,29.70,5,1,10,0.00
2013-8-28,89,75,60,56,52,47,68,46,28,29.87,29.74,6,2,10,0.00
2013-8-29,87,75,67,60,56,53,67,53,32,29.91,29.79,8,2,13,0.00
2013-8-30,94,78,62,62,55,46,83,51,25,29.90,29.71,5,1,9,0.00
2013-8-31,97,80,64,60,53,46,70,42,19,29.77,29.58,4,1,9,0.00
2013-9-1,97,79,66,60,52,48,71,42,20,29.80,29.59,14,2,22,0.06
2013-9-2,94,77,66,59,56,52,74,51,28,29.84,29.69,8,2,10,0.00
2013-9-3,94,79,66,59,55,50,74,47,25,29.86,29.68,8,2,11,0.00
2013-9-4,93,78,63,54,49,37,62,38,22,29.91,29.76,4,2,6,0.00
2013-9-5,92,77,61,45,41,36,45,29,18,29.94,29.78,5,1,8,0.00
2013-9-6,91,77,60,44,40,34,42,27,18,29.93,29.72,6,2,9,0.00
2013-9-7,91,76,61,57,50,44,59,42,25,29.85,29.68,5,1,9,0.00
2013-9-8,90,74,61,57,49,-100,66,44,23,29.80,29.58,9,-4,12,0.00
2013-9-9,87,74,60,56,53,47,76,51,29,29.69,29.53,8,2,14,0.03
2013-9-10,71,64,61,61,59,56,97,83,62,29.86,29.67,6,1,12,0.82
2013-9-11,83,69,61,63,59,53,97,73,36,29.93,29.80,5,1,9,0.00
2013-9-12,72,65,59,64,60,57,96,86,74,29.89,29.78,6,2,10,0.85
2013-9-13,76,64,59,61,59,56,98,86,52,29.88,29.77,5,1,8,0.92
2013-9-14,74,64,57,62,58,54,97,82,56,29.86,29.73,6,1,9,1.05
2013-9-15,80,66,54,59,56,51,96,73,40,29.93,29.82,3,1,6,0.40
2013-9-16,80,67,55,58,55,52,91,68,41,29.99,29.84,4,1,7,0.00
2013-9-17,82,69,57,59,57,54,92,68,41,29.92,29.69,5,2,9,0.00
2013-9-18,83,70,62,61,58,52,88,67,39,29.75,29.60,5,2,10,0.00
2013-9-19,87,71,59,60,53,41,93,59,25,29.76,29.65,4,1,6,0.05
2013-9-20,85,69,58,55,51,40,79,55,31,29.85,29.72,4,2,6,0.00
2013-9-21,81,67,55,57,53,49,90,64,37,29.86,29.67,5,2,9,0.00
2013-9-22,80,65,54,56,52,43,91,65,34,29.72,29.38,13,4,19,0.05
2013-9-23,74,60,45,43,37,32,76,46,23,29.95,29.61,8,3,14,0.00
2013-9-24,79,63,48,43,40,35,70,45,21,30.04,29.82,4,2,8,0.00
2013-9-25,85,67,49,46,41,35,73,44,17,29.82,29.51,7,2,10,0.00
2013-9-26,83,69,53,44,39,32,59,36,17,29.64,29.47,10,4,15,0.00
2013-9-27,70,58,44,50,41,29,65,53,38,29.93,29.56,8,3,11,0.00
2013-9-28,73,56,39,29,25,20,61,35,14,30.15,29.93,5,2,8,0.00
2013-9-29,79,59,39,31,27,24,59,32,14,30.15,29.91,4,1,6,0.00
2013-9-30,85,64,44,36,30,26,55,30,14,29.94,29.71,5,2,10,0.00
2013-10-1,87,66,46,34,28,20,48,27,9,29.85,29.72,4,2,6,0.00
2013-10-2,82,64,46,35,30,22,47,30,12,29.88,29.69,4,1,8,0.00
2013-10-3,80,63,46,40,32,22,57,34,12,29.78,29.55,8,2,15,0.00
2013-10-4,64,55,46,34,22,12,51,30,15,30.04,29.65,9,5,15,0.00
2013-10-5,63,50,35,24,20,15,59,32,18,30.23,30.04,7,4,13,0.00
2013-10-6,74,54,37,28,24,20,53,33,15,30.28,30.11,5,2,6,0.00
2013-10-7,75,56,39,28,24,22,51,32,16,30.20,29.97,4,1,9,0.00
2013-10-8,78,64,43,35,32,28,55,32,18,29.95,29.69,5,2,8,0.00
2013-10-9,76,62,44,38,33,29,59,36,20,29.78,29.64,7,2,10,0.00
2013-10-10,70,55,40,45,37,29,78,52,31,29.87,29.53,14,5,25,0.06
2013-10-11,64,48,32,34,31,27,83,56,32,30.05,29.87,5,1,8,0.00
2013-10-12,70,53,39,38,34,31,74,52,27,30.13,29.95,4,2,8,0.00
2013-10-13,77,60,47,46,40,36,67,49,25,30.05,29.75,10,3,13,0.00
2013-10-14,69,57,44,45,30,20,62,38,17,29.93,29.79,6,2,11,0.00
2013-10-15,66,52,39,34,28,23,55,40,27,30.01,29.83,9,3,13,0.00
2013-10-16,64,51,41,37,28,16,74,45,20,30.06,29.93,6,3,9,0.00
2013-10-17,66,50,30,24,20,16,58,33,18,30.13,29.89,4,1,6,0.00
2013-10-18,63,50,35,22,18,13,49,29,17,30.12,29.91,11,3,17,0.00
2013-10-19,68,48,28,26,22,18,76,41,17,30.20,30.00,4,1,12,0.00
2013-10-20,72,54,35,24,19,15,49,28,13,30.03,29.78,6,2,9,0.00
2013-10-21,67,52,38,33,29,18,71,43,26,30.11,29.89,4,2,7,0.00
2013-10-22,69,50,33,29,25,21,70,41,20,30.25,30.08,3,1,5,0.00
2013-10-23,71,54,36,32,26,20,53,35,21,30.17,29.99,3,1,6,0.00
2013-10-24,74,57,42,49,32,24,85,41,22,30.12,29.94,10,1,10,0.08
2013-10-25,65,53,44,48,45,40,92,76,48,30.13,29.97,9,2,15,0.06
2013-10-26,70,53,39,45,40,36,92,65,32,30.24,30.10,3,1,6,0.00
2013-10-27,68,53,37,41,37,33,86,58,31,30.16,29.82,4,1,10,0.00
2013-10-28,70,55,43,41,35,23,79,51,23,29.86,29.73,6,1,9,0.00
2013-10-29,68,58,45,31,28,22,51,32,22,29.90,29.65,10,4,16,0.00
2013-10-30,61,49,35,38,32,25,78,55,33,29.91,29.67,9,3,13,0.00
2013-10-31,56,44,31,30,27,24,81,54,31,30.11,29.91,8,3,11,0.00
2013-11-1,60,48,36,30,27,24,69,47,27,30.23,30.08,9,4,15,0.00
2013-11-2,63,49,32,30,27,24,74,45,26,30.30,30.00,4,1,8,0.00
2013-11-3,67,54,41,41,33,23,83,47,26,30.00,29.66,6,2,11,0.01
2013-11-4,65,52,36,44,37,30,81,57,34,29.86,29.66,8,3,12,0.00
2013-11-5,52,43,32,45,32,16,91,66,47,30.25,29.71,9,3,13,0.20
2013-11-6,56,40,24,20,18,15,70,43,21,30.49,30.25,7,2,10,0.00
2013-11-7,60,44,30,26,22,18,62,43,23,30.51,30.27,3,1,6,0.00
2013-11-8,63,46,30,28,24,19,66,45,24,30.27,30.02,4,1,6,0.00
2013-11-9,69,50,33,28,25,22,67,41,20,30.19,30.07,3,1,6,0.00
2013-11-10,69,51,37,29,26,22,55,39,19,30.26,30.11,3,1,5,0.00
2013-11-11,71,52,38,28,25,21,61,37,19,30.30,30.13,4,1,7,0.00
2013-11-12,60,47,36,36,32,21,83,58,36,30.50,30.29,6,2,8,0.00
2013-11-13,56,44,32,38,35,30,94,74,52,30.49,30.16,3,1,6,0.00
2013-11-14,62,44,33,42,33,26,94,69,33,30.16,29.94,3,1,4,0.00
2013-11-15,59,44,31,44,34,26,87,69,40,29.94,29.66,8,2,13,0.08
2013-11-16,60,49,38,42,36,26,90,63,37,29.78,29.57,8,4,14,0.00
2013-11-17,62,47,36,34,30,26,74,53,33,30.14,29.78,6,2,11,0.00
2013-11-18,58,43,34,34,30,26,76,61,40,30.23,30.10,2,0,3,0.00
2013-11-19,61,46,30,36,32,26,86,60,36,30.15,29.86,4,1,8,0.00
2013-11-20,50,44,39,42,37,29,94,78,54,29.93,29.82,6,1,8,0.24
2013-11-21,54,45,38,46,42,37,95,89,70,30.08,29.92,3,1,4,0.33
2013-11-22,42,35,31,40,29,25,94,80,72,30.42,30.07,7,3,10,0.07
2013-11-23,37,33,27,29,25,20,92,74,64,30.50,30.37,10,5,16,0.00
2013-11-24,33,28,22,24,21,17,91,77,61,30.45,30.25,7,2,13,0.02
2013-11-25,45,34,26,32,28,24,94,79,59,30.44,30.21,6,2,11,0.01
2013-11-26,50,35,22,33,27,20,93,76,51,30.54,30.43,2,0,4,0.01
2013-11-27,48,36,25,30,27,22,88,72,49,30.49,30.27,3,1,6,0.00
2013-11-28,49,36,26,29,25,22,89,68,39,30.37,30.25,2,1,4,0.00
2013-11-29,57,39,25,31,28,21,88,65,37,30.44,30.29,3,1,3,0.00
2013-11-30,57,41,30,35,31,26,86,69,43,30.37,30.20,3,1,5,0.00
2013-12-1,49,37,30,33,30,26,89,75,52,30.34,30.24,8,2,10,0.00
2013-12-2,36,32,30,28,26,25,83,80,72,30.28,29.92,4,2,7,0.00
2013-12-3,64,46,28,29,22,15,80,45,15,29.92,29.61,11,3,17,0.00
2013-12-4,59,44,34,34,25,18,75,51,25,29.83,29.51,15,5,20,0.00
2013-12-5,35,27,15,31,23,11,93,86,63,30.12,29.79,3,1,5,0.00
2013-12-6,34,22,10,22,14,7,92,73,47,30.38,30.12,4,1,7,0.03
2013-12-7,32,25,16,29,20,11,94,81,71,30.33,30.01,4,1,7,0.00
2013-12-8,36,29,23,25,16,9,82,60,46,30.12,29.94,10,4,15,0.00
2013-12-9,30,23,14,15,8,1,75,54,32,30.69,30.12,9,4,16,0.00
2013-12-10,36,21,9,10,4,-1,65,49,26,30.72,30.50,3,1,4,0.00
2013-12-11,45,28,14,16,11,5,69,50,28,30.69,30.53,3,1,5,0.00
2013-12-12,43,33,24,19,16,11,62,49,35,30.66,30.24,4,1,7,0.00
2013-12-13,47,36,30,32,24,18,74,63,52,30.24,30.01,9,2,15,0.00
2013-12-14,47,35,24,21,18,16,73,53,31,30.50,30.17,7,2,9,0.00
2013-12-15,49,36,21,22,18,15,75,51,33,30.51,30.38,9,3,11,0.00
2013-12-16,57,41,27,24,21,18,71,47,28,30.48,30.32,8,2,11,0.00
2013-12-17,62,41,27,26,22,18,72,50,24,30.47,30.32,3,1,5,0.00
2013-12-18,53,38,26,25,22,18,72,53,32,30.33,29.98,3,1,6,0.00
2013-12-19,55,40,29,27,24,20,72,53,32,29.98,29.70,4,1,6,0.00
2013-12-20,53,40,28,32,24,19,81,57,30,29.82,29.64,4,1,6,0.00
2013-12-21,43,37,32,33,27,24,93,70,52,29.89,29.55,8,3,14,0.00
2013-12-22,46,33,21,24,18,13,80,57,29,30.39,29.89,6,1,8,0.00
2013-12-23,49,34,20,21,18,14,76,55,33,30.58,30.39,5,2,7,0.00
2013-12-24,49,34,22,24,21,16,82,60,36,30.51,30.25,5,2,9,0.00
2013-12-25,49,37,25,22,18,11,71,48,31,30.50,30.35,6,2,7,0.00
2013-12-26,50,34,18,19,15,12,79,48,26,30.51,30.35,4,2,8,0.00
2013-12-27,32,30,29,16,15,14,56,53,50,30.47,30.45,2,1,4,0.00
2013-12-28,48,39,20,19,17,12,72,43,31,30.22,30.01,5,2,7,0.00
2013-12-29,34,29,25,21,18,16,70,62,56,30.25,30.20,2,1,4,0.00
2013-12-30,52,36,25,17,13,9,71,41,21,30.43,30.24,6,2,10,0.00
2013-12-31,50,35,21,19,16,11,68,46,28,30.43,30.23,5,1,9,0.00
2014-1-1,55,39,25,23,17,14,68,44,21,30.36,30.16,11,3,17,0.00
2014-1-2,52,35,22,24,17,12,82,50,21,30.44,30.30,5,1,8,0.00